STARLINK-5739, 55571

Orbit data source: Space-Track

STARLINK-5739, 55571 is a payload satellite owned by SpaceX/Seattle (US) in LEO that was launched on Sun, 12 Feb 2023 UTC via an FALCON 9 launch vehicle from the Air Force Eastern Test Range (AFETR). Payload-class satellites include a variety of spacecraft equipped with specific instruments for various scientific and technological missions. These include communications satellites like Starlink; space stations such as the ISS; scientific satellites like the Hubble; Earth observation satellites from companies like Planet Labs, Umbra, and HawkEye 360; GPS; miniature CubeSats for education and research; and military/defense satellites.

Loading next visibility...
Identifier
55571, 2023-020C
Orbit
LEO
Country
Flag of USUS
Related business
Manufacturer
SpaceX/Seattle
Mission
Operational Commercial Communications
Bus & Motor
STARLINK, Unknown motor
Mass
305 kg wet, ~290 kg dry
Launch date (UTC)
2023-02-12 (3 years ago)
Launch vehicle
FALCON 9
Launch site
Air Force Eastern Test Range (AFETR)
Object type
Payload
Rocket body
Debris
Shape & HBR
Box + 1 Pan, 10.1 m
Radar Cross Section
13.562 m², Large (>1 m²)

Expand to show TLE details & history
Last TLE update: 1 day ago

TLE from 1 day ago
0 STARLINK-5739
1 55571U 23020C   25338.54709156  .00000425  00000-0  46508-4 0  9996
2 55571  43.0015 161.9396 0001103 270.8489  89.2227 15.02537032154600
Epoch: 2025-12-04T13:07Z
TLE epoch observation values (Epoch: 2025-12-04T13:07:48.710Z)
Latitude
-0.00003°
Longitude
-108.61536°
Altitude
558.844 km
Speed
7.584 km/s
True Right ascension
10h 47m 45s
True Declination
0° 00' 00"
Sunlit
Object was in daylight at epoch
Visualization orbit readout
Latitude
Unknown
Longitude
Unknown
Altitude
Unknown
Speed
Unknown
Apparent Right ascension
Unknown
Apparent Declination
Unknown
Sunlit
N/A
Visualization observer readout
Local Sidereal Time
13:18:07
Azimuth
Unknown
Elevation
Unknown
Doppler factor
Unknown
Orbital elements
Apogee altitude
561.765 km
Perigee altitude
560.235 km
Semi-major axis
6,939.137 km
Eccentricity
0.00011
Inclination
43.0015°
RAAN
161.9396°
Arg. of periapsis
270.8489°
True anomaly
89.23534°
Mean anomaly
89.2227°
Eccentric anomaly
89.22902°
Mean motion
3.75478 °/min
Orbital period
95.88 mins
BSTAR
0.000046508
Loading maneuver chart data...
Computing Atmospheric mass density...
Loading historical data...
Loading historical data...
Loading historical data...
Loading historical data...
Loading historical data...
Loading historical data...
Loading historical data...

Documentation

Showing up to 5 results
|